Lexington Weather

Lexington, Massachusetts, USA

41°F
1/23/2020 11:53am 
  • Lexington Conditions: Clear
  • Temperature: 41.2°F / 5.1°CWarmer 5.6°F than last hour.
  • Dew Point: 21.9°FIncreased 0.9°Fsince last hour.
  • Relative Humidity: 46%Decreased 9.0% since last hour.
  • Wind: Calm, 10-min avg: Calm, gust: 4 mph
  • Barometer: 30.31 inFalling 0.03  inHg/hr Falling Slowly
  • Visibility: 10 miles
  • Rain Today: 0.00 in
  •   

Regional Weather Roundup
for Boston / Norton, MA

        
000
ASUS41 KBOX 231600
RWRBOX

REGIONAL WEATHER ROUNDUP
NATIONAL WEATHER SERVICE BOSTON/NORTON MA
1100 AM EST THU JAN 23 2020

NOTE:  "FAIR" INDICATES FEW OR NO CLOUDS BELOW 12,000 FEET WITH NO 
SIGNIFICANT WEATHER AND/OR OBSTRUCTIONS TO VISIBILITY.

MAZALL-231700-
EASTERN MASSACHUSETTS
  
CITY           SKY/WX    TMP DP  RH WIND       PRES   REMARKS
BOSTON         FAIR      42  18  37 SW10      30.37F                  
BEVERLY        FAIR      36  18  48 SW6       30.36S WCI  31          
LAWRENCE       FAIR      32  17  54 SW6       30.38F WCI  26          
BEDFORD        FAIR      35  16  45 SW5       30.36S WCI  31          
BLUE HILL        N/A     37  15  40 SW10      30.34S WCI  30          
NORWOOD        FAIR      43  16  33 SW7       30.38F                  
MARSHFIELD     NOT AVBL                                               
PLYMOUTH       FAIR      41  20  43 SW14      30.39F                  
TAUNTON        FAIR      41  21  44 SW7       30.39F                  
NEW BEDFORD    FAIR      41  23  48 SW10      30.40F                  
$$

MAZALL-231700-
CAPE COD AND THE ISLANDS
  
CITY           SKY/WX    TMP DP  RH WIND       PRES   REMARKS
FALMOUTH       SUNNY     41  28  60 W10       30.41S                  
HYANNIS        NOT AVBL                                               
CHATHAM        FAIR      42  33  70 SW5       30.41F                  
PROVINCETOWN   FAIR      40  31  70 SW16      30.39F WCI  31          
NANTUCKET      FAIR      42  32  67 SW10      30.41F                  
MARTHAS VNYRD  FAIR      44  26  49 SW8       30.40F                  
$$
 
MAZALL-231700-
CENTRAL AND WESTERN MASSACHUSETTS
  
CITY           SKY/WX    TMP DP  RH WIND       PRES   REMARKS
WORCESTER      FAIR      37  14  38 SW13      30.33S WCI  29          
FITCHBURG      FAIR      37  16  42 CALM      30.35F                  
ORANGE         FAIR      23  16  74 CALM      30.37F                  
SPRINGFIELD    NOT AVBL                                               
WESTFIELD      SUNNY     27  18  69 S3        30.38F                  
NORTH ADAMS    FAIR      26  32 100 CALM      30.37F                  
PITTSFIELD     FAIR      26  17  68 CALM      30.33S                  
$$
 
RIZALL-231700-
RHODE ISLAND
  
CITY           SKY/WX    TMP DP  RH WIND       PRES   REMARKS
PROVIDENCE     PTSUNNY   41  21  44 SW10      30.41S                  
NEWPORT        FAIR      41  26  55 VRB7      30.40F                  
BLOCK ISLAND   FAIR      39  29  67 W8        30.42F                  
SMITHFIELD     FAIR      40  16  37 SW9       30.38S                  
WESTERLY       FAIR      41  25  53 W9        30.42F                  
$$
 
CTZALL-231700-
CONNECTICUT
  
CITY           SKY/WX    TMP DP  RH WIND       PRES   REMARKS
BRADLEY INTL   PTSUNNY   28  19  69 SE3       30.40S                  
HARTFORD       FAIR      32  22  66 S3        30.41F                  
BRIDGEPORT     FAIR      37  26  64 SW8       30.43R WCI  31          
DANBURY        FAIR      32  20  61 CALM      30.41S                  
GROTON         NOT AVBL                                               
NEW HAVEN      FAIR      38  27  64 SW6       30.42S                  
CHESTER        NOT AVBL                                               
MERIDEN        FAIR      34  21  59 MISG      30.41F                  
WILLIMANTIC    FAIR      30  19  63 CALM      30.41F                  
OXFORD         FAIR      32  17  54 VRB5      30.39S WCI  27          
$$

MEZ002-015-021-024-NHZ003-005-008-011-012-014-VTZ005-008-231700-
NORTHERN NEW ENGLAND
  
CITY           SKY/WX    TMP DP  RH WIND       PRES   REMARKS
PORTLAND ME    PTSUNNY   35  17  47 CALM      30.34F                  
BANGOR ME      FAIR      32  20  61 SW6       30.31F WCI  26          
CONCORD NH     FAIR      24  16  71 CALM      30.35F                  
MANCHESTER NH  PTSUNNY   28  16  60 CALM      30.35S                  
NASHUA NH      FAIR      28  17  63 CALM      30.36F                  
PORTSMOUTH NH  PTSUNNY   36  13  38 SW6       30.33S WCI  31          
JAFFREY NH     FAIR      32  16  51 S8        30.32R WCI  25          
KEENE NH       FLURRIES  29  21  72 CALM      30.38F                  
BURLINGTON VT  PTSUNNY   31  17  56 S8        30.33F WCI  23          
MT. WASHINGTON PTSUNNY   25   5  42 W32         N/A  WCI   7          
$$

NYZ052-076-231700-
EASTERN NEW YORK
  
CITY           SKY/WX    TMP DP  RH WIND       PRES   REMARKS
ALBANY         PTSUNNY   27  17  66 CALM      30.40S                  
NEW YORK CITY  PTSUNNY   41  14  33 SW8       30.42S                  
$$
 
ANZALL-231700-
MARINE OBSERVATIONS
  
STATION/POSITION TIME  TEMP    WIND        PRES    VSBY  WAVE
                       AIR SEA DIR/SP/G                  HT/PER
                 (UTC) (F)     (DEG/KT/KT) (MB)    (MI)  (FT/S)
BOSTON BUOY      NOT AVBL
BUZZARDS BAY     1500   38     240/ 11/ 12 1030.6R
NANTUCKET SOUND  NOT AVBL
MASS BAY-STELLWA 1504   36 42  260/ 16/ 17 1026.4R  1 7/8  3/ 4
ISLE OF SHOALS   1500   30     210/  9/ 10 1027.8R
S OF BLOCK IS    1530      45                N/A           2/ 9
$$

......................KEY.........................
  SKY/WX - SKY CONDITION/PRESENT WEATHER
  TMP    - TEMPERATURE IN FAHRENHEIT
  DWPT   - DEWPOINT IN FAHRENHEIT
  RH     - RELATIVE HUMIDITY IN PERCENT
  WIND   - DIRECTION AND SPEED IN MPH
  PRES   - MEAN SEA LEVEL PRESSURE IN INCHES OF HG
  WCI    - WIND CHILL INDEX
  VSB    - VISIBILITY IN MILES
  HX     - HEAT INDEX
  TC     - TEMPERATURE IN CELSIUS
  VRB    - VARIABLE WIND DIRECTION
  N/A    - NOT AVAILABLE
  
      

Other recent Regional Weather Roundups

Thu Jan 23, 11:10am

Thu Jan 23, 10:10am

Thu Jan 23, 10:00am

Thu Jan 23, 9:10am

Thu Jan 23, 9:00am

Thu Jan 23, 8:10am

Thu Jan 23, 8:00am

Thu Jan 23, 7:10am

Thu Jan 23, 7:01am

Thu Jan 23, 6:10am

Thu Jan 23, 6:00am

Thu Jan 23, 5:10am

Thu Jan 23, 5:00am

Thu Jan 23, 4:10am

Thu Jan 23, 4:01am

Thu Jan 23, 3:10am

Thu Jan 23, 3:00am

Thu Jan 23, 2:10am

Thu Jan 23, 2:00am

Thu Jan 23, 1:10am

Thu Jan 23, 1:00am

Thu Jan 23, 12:10am

Thu Jan 23, 12:00am

Wed Jan 22, 11:10pm

Wed Jan 22, 11:01pm

Wed Jan 22, 10:10pm

Wed Jan 22, 10:00pm

Wed Jan 22, 9:10pm

Wed Jan 22, 9:00pm

Wed Jan 22, 8:10pm

Wed Jan 22, 8:01pm

Wed Jan 22, 7:10pm

Wed Jan 22, 7:00pm

Wed Jan 22, 6:10pm

Wed Jan 22, 6:01pm

Wed Jan 22, 5:10pm

Wed Jan 22, 5:00pm

Wed Jan 22, 4:10pm

Wed Jan 22, 4:00pm

Wed Jan 22, 3:10pm

Wed Jan 22, 3:00pm

Wed Jan 22, 2:10pm

Wed Jan 22, 2:00pm

Wed Jan 22, 1:10pm

Wed Jan 22, 1:00pm

Wed Jan 22, 12:10pm

Wed Jan 22, 12:00pm

Wed Jan 22, 11:10am

Wed Jan 22, 11:00am

Wed Jan 22, 10:10am

Wed Jan 22, 10:01am

Wed Jan 22, 9:10am

Wed Jan 22, 9:00am

Wed Jan 22, 8:10am

Wed Jan 22, 8:00am

Wed Jan 22, 7:10am

Wed Jan 22, 7:00am

Wed Jan 22, 6:10am

Wed Jan 22, 6:00am

Wed Jan 22, 5:10am

Wed Jan 22, 5:00am

Wed Jan 22, 4:10am

Wed Jan 22, 4:00am

Wed Jan 22, 3:10am

Wed Jan 22, 3:01am

Wed Jan 22, 2:10am

Wed Jan 22, 2:00am

Wed Jan 22, 1:10am

Wed Jan 22, 1:00am

Wed Jan 22, 12:10am

Wed Jan 22, 12:00am

Tue Jan 21, 11:10pm

Tue Jan 21, 11:00pm

Tue Jan 21, 10:10pm

Tue Jan 21, 10:00pm

Tue Jan 21, 9:10pm

Tue Jan 21, 9:01pm

Tue Jan 21, 8:10pm

Tue Jan 21, 8:00pm

Tue Jan 21, 7:10pm

Tue Jan 21, 7:00pm

Tue Jan 21, 6:10pm

Tue Jan 21, 6:01pm

Tue Jan 21, 5:10pm

Tue Jan 21, 5:00pm

Tue Jan 21, 4:10pm

Tue Jan 21, 4:00pm

Tue Jan 21, 3:10pm

Tue Jan 21, 3:01pm

Tue Jan 21, 2:10pm

Tue Jan 21, 2:00pm

Tue Jan 21, 1:10pm

Tue Jan 21, 1:00pm

Tue Jan 21, 12:10pm

Tue Jan 21, 12:00pm

Tue Jan 21, 11:10am

Tue Jan 21, 11:00am

Tue Jan 21, 10:10am

Tue Jan 21, 10:00am

Tue Jan 21, 9:10am

Tue Jan 21, 9:00am

Tue Jan 21, 8:10am

Tue Jan 21, 8:00am

Tue Jan 21, 7:10am

Tue Jan 21, 7:00am

Tue Jan 21, 6:10am

Tue Jan 21, 6:00am

Tue Jan 21, 5:10am

Tue Jan 21, 5:00am

Tue Jan 21, 4:10am

Tue Jan 21, 4:00am

Tue Jan 21, 3:10am

Tue Jan 21, 3:00am

Tue Jan 21, 2:10am

Tue Jan 21, 2:01am

Tue Jan 21, 1:10am

Tue Jan 21, 1:00am

Tue Jan 21, 12:10am

Tue Jan 21, 12:00am

Mon Jan 20, 11:10pm

Mon Jan 20, 11:00pm

Mon Jan 20, 10:10pm

Mon Jan 20, 10:00pm

Mon Jan 20, 9:10pm

Mon Jan 20, 9:00pm

Mon Jan 20, 8:10pm

Mon Jan 20, 8:00pm

Mon Jan 20, 7:10pm

Mon Jan 20, 7:00pm

Mon Jan 20, 6:10pm

Mon Jan 20, 6:00pm

Mon Jan 20, 5:10pm

Mon Jan 20, 5:00pm

Mon Jan 20, 4:10pm

Mon Jan 20, 4:01pm

Mon Jan 20, 3:10pm

Mon Jan 20, 3:00pm

Mon Jan 20, 2:10pm

Mon Jan 20, 2:00pm

Mon Jan 20, 1:10pm

Mon Jan 20, 1:00pm

Mon Jan 20, 12:10pm

Mon Jan 20, 12:00pm

Meta data:

ID: 621e9850-8708-4fa0-84a4-3e83bf4c6ae2
Link: https://api.weather.gov/products/621e9850-8708-4fa0-84a4-3e83bf4c6ae2